Weather in Inowroclaw

Poland     52°46′53″N   18°14′48″E
temp.,
°C
wind,
m/s
gust,
m/s
humid.,
%
clouds,
%
prec.,
mm/h
press.,
hPa
HPBL,
m
24 june, thu
thu2423:00+20nw2276100 0.0 101938
02:00+19nne2382100 0.0 101862
05:00+17ne369113 0.0 1017170
08:00+21ene4583100 0.0 1017401
11:00+22se4681100 0.6 1016723
14:00+24wsw4578100 2.9 1015866
17:00+23w457996 0.1 1015746
20:00+20wnw46861 0.1 1015376
25 june, fri
fri2523:00+15w369749 0.0 1016152
02:00+14wnw3698100 0.0 1015143
05:00+15nw4794100 0.0 1014212
08:00+17nnw458294 0.0 1015535
11:00+17wnw3584100 0.2 1016422
14:00+16wsw3494100 2.1 1017205
17:00+20wnw347415 3.2 1016651
20:00+18wnw238367 4.3 101648
26 june, sat
sat2623:00+16w22875 0.1 101711
02:00+14n229190 0.1 101817
05:00+13nnw34918 0.0 101857
08:00+17nw358015 0.0 1019323
11:00+21nw446129 0.0 1019995
14:00+23nw345426 0.0 10181499
17:00+22wnw435635 0.0 10181013
20:00+20wsw226823 0.0 101712
27 june, sun
sun2723:00+16wnw337416 0.0 101824
02:00+14nnw22830 0.0 101922
05:00+13nnw22940 0.0 101919
08:00+18nnw23762 0.0 1019284
11:00+22nw235410 0.0 10191058
14:00+24wnw235198 0.0 10181577
17:00+24wnw23499 0.0 10181751
20:00+21nw226542 0.0 101816
28 june, mon
mon2823:00+17w116940 0.0 101811
02:00+16n117516 0.0 101911
05:00+15ne117922 0.0 101911
08:00+20e1169100 0.0 1019179
11:00+24se115220 0.0 1018864
14:00+26e114239 0.0 10181835
17:00+26se11420 0.0 10171654
20:00+23sse01560 0.0 101611